Regional Weather Roundup
Issued by NWS

Home | Current Version | Previous Version | Text Only | Print | Product List | Glossary Off
Versions: 1 2 3 4 5 6 7 8 9 10 11 12 13 14 15 16 17 18 19 20 21 22 23 24 25 26 27 28 29 30 31 32 33 34 35 36 37 38 39 40 41 42 43 44 45 46 47 48 49 50

000
ASUS45 KPSR 291410
RWRAZ

ARIZONA HOURLY REGIONAL WEATHER ROUNDUP
NATIONAL WEATHER SERVICE PHOENIX AZ
700 AM MST WED JUL 29 2015

NOTE: FAIR INDICATES FEW OR NO CLOUDS BELOW 12,000 FEET WITH NO
SIGNIFICANT WEATHER AND/OR OBSTRUCTIONS TO VISIBILITY.

AZZ001>003-036-291500-
NORTHWEST ARIZONA

CITY           SKY/WX    TMP DP  RH WIND       PRES   REMARKS
BULLHEAD CITY  PTSUNNY   86  52  30 CALM      29.90R
KINGMAN        PTSUNNY   81  38  21 VRB3      30.10R
$$

AZZ004>008-015-016-018-291500-
NORTH CENTRAL ARIZONA

CITY           SKY/WX    TMP DP  RH WIND       PRES   REMARKS
GRAND CANYON   MOSUNNY   57  31  37 CALM      30.33R
WILLIAMS       PTSUNNY   64  37  36 S5        30.39S
PRESCOTT       CLOUDY    73  58  59 CALM      30.22R
FLAGSTAFF      MOSUNNY   57  51  80 SW3       30.35S
PAYSON         CLOUDY    72  55  56 CALM      30.25R
PAGE           MOSUNNY   77  33  20 CALM      30.16R
$$

AZZ009>014-017-291500-
NORTHEAST ARIZONA

CITY           SKY/WX    TMP DP  RH WIND       PRES   REMARKS
WINSLOW        PTSUNNY   75  55  49 W6        30.19R
SAINT JOHNS    CLOUDY    70  55  59 CALM      30.27R
WINDOW ROCK    CLOUDY    63  49  60 CALM      30.37R
SHOW LOW       CLOUDY    66  50  55 SE6       30.33R
$$

AZZ023-291500-
GREATER PHOENIX AREA

CITY           SKY/WX    TMP DP  RH WIND       PRES   REMARKS
PHOENIX        CLOUDY    88  61  40 E7        29.94R
GLENDALE       PTSUNNY   88  63  42 CALM      29.94S
LUKE AFB       CLOUDY    88  63  42 N2        29.94R
DEER VALLEY    CLOUDY    85  60  42 NE7       29.97R
SCOTTSDALE     CLOUDY    86  61  42 CALM      29.99R
MESA-FALCON    PTSUNNY   84  59  42 S7        29.97R
MESA-GATEWAY   PTSUNNY   84  63  48 S3        29.99R
CHANDLER       PTSUNNY   82  66  57 S8        29.97R
$$

AZZ027-028-291500-
SOUTHWEST MARICOPA COUNTY AND PINAL COUNTY

CITY           SKY/WX    TMP DP  RH WIND       PRES   REMARKS
CASA GRANDE    CLOUDY    82  63  51 CALM      29.97S
GILA BEND      PTSUNNY   80  73  80 SE6       29.93R
$$

AZZ503-504-507>509-291500-
SOUTHEAST ARIZONA

CITY           SKY/WX    TMP DP  RH WIND       PRES   REMARKS
TUCSON         CLOUDY    75  68  78 CALM      30.08R
DAVIS-MONTHAN  CLOUDY    74  68  82 CALM      30.07R
RYAN FIELD       N/A     75  70  83 CALM      30.08R
NOGALES        CLOUDY    69  65  86 CALM      30.15
SIERRA VISTA   CLOUDY    73  57  59 S7        30.20R
DOUGLAS          N/A    N/A N/A N/A MISG      30.16R
SAFFORD        PTSUNNY   81  61  50 S6        30.09R
$$

AZZ020-021-025-026-031-291500-
SOUTHWEST ARIZONA

CITY           SKY/WX    TMP DP  RH WIND       PRES   REMARKS
YUMA           CLOUDY    90  66  45 SE10      29.87R
$$

CAZ031-033-041-043-047-048-061-291500-
SOUTHERN CALIFORNIA

CITY           SKY/WX    TMP DP  RH WIND       PRES   REMARKS
DOWNTOWN L.A.  CLOUDY    67  63  87 CALM      29.92R FOG
L.A. AIRPORT   CLOUDY    66  63  90 W8        29.93R
SAN DIEGO      CLOUDY    70  62  76 CALM      29.93S
BURBANK        SUNNY     66  61  84 S3        29.93R
ONTARIO        MOSUNNY   67  62  84 W5        29.93R HAZE
RIVERSIDE      SUNNY     67  62  84 W3        29.93R
PALM SPRINGS   MOSUNNY   86  58  38 CALM      29.91R
EL CENTRO NAS  PTSUNNY   83  71  67 NE7       29.87R
IMPERIAL       LGT RAIN  85  73  67 E8        29.85R
BLYTHE         PTSUNNY   89  69  51 S7        29.90R
NEEDLES        MOSUNNY   93  56  28 SW10      29.90R
$$

NVZ020-UTZ003-291500-
SOUTHERN NEVADA-UTAH

CITY           SKY/WX    TMP DP  RH WIND       PRES   REMARKS
LAS VEGAS      MOSUNNY   85  32  15 CALM      29.97R
SALT LAKE CITY MOSUNNY   61  40  45 CALM      30.29R
$$

NMZ009-TXZ055-291500-
NEW MEXICO-WEST TEXAS

CITY           SKY/WX    TMP DP  RH WIND       PRES   REMARKS
ALBUQUERQUE    CLOUDY    72  55  55 NW5       30.30R
EL PASO        CLOUDY    73  65  75 NE9       30.17R
$$


........................KEY........................
SKY/WX - SKY CONDITION/WEATHER
TMP    - TEMPERATURE IN FAHRENHEIT
DP     - DEW POINT IN FAHRENHEIT
RH     - RELATIVE HUMIDITY IN PERCENT
WIND   - DIRECTION AND SPEED IN MILES PER HOUR (MPH)
VRB    - VARIABLE WIND DIRECTION
PRES   - MEAN SEA LEVEL PRESSURE IN INCHES OF MERCURY
         F - FALLING PRESSURE   R - RISING PRESSURE
         S - STEADY PRESSURE
VSB    - VISIBILITY IN MILES
HX     - HEAT INDEX IN FAHRENHEIT
WCI    - WIND CHILL INDEX IN FAHRENHEIT
TC     - TEMPERATURE IN CELSIUS WHICH IS ALSO KNOWN AS
         TEMPERATURE IN CENTIGRADE
AFB    - AIR FORCE BASE
         LUKE AFB IS LUKE AIR FORCE BASE
         DAVIS-MONTHAN IS DAVIS-MONTHAN AIR FORCE BASE
NAS    - NAVAL AIR STATION
         EL CENTRO NAS IS EL CENTRO NAVAL AIR STATION
N/A    - NOT AVAILABLE



USA.gov is the U.S. government's official web portal to all federal, state and local government web resources and services.